VKG4557 ESMS-ESSA

Flight info

Callsign VKG4557
Flight time 0h 51m
Altitude 39000
Route NEXIL N851 ROXEN DCT MIKNA N851 PELUP Z226 NILUG
Aircraft A21N/M-SDE2E3FGHIJ1J3J4J5P2RWXYZ/LB2D1G1

Departure

Time 2026-04-24 11:38
Airport Malmö Sturup Airport (ESMS)

Arrival

Time 2026-04-24 12:29
Airport Stockholm-Arlanda Airport (ESSA)
Time Latitude Longitude Altitude Speed Heading
2026-04-24 11:14 55.54113 13.36949 236 ft 0 kts 173°
2026-04-24 11:29 55.54117 13.36948 236 ft 3 kts 173°
2026-04-24 11:30 55.54141 13.36943 236 ft 2 kts 173°
2026-04-24 11:30 55.54162 13.36933 236 ft 4 kts 137°
2026-04-24 11:30 55.54170 13.36898 236 ft 3 kts 83°
2026-04-24 11:30 55.54169 13.36873 236 ft 0 kts 83°
2026-04-24 11:33 55.54170 13.36897 236 ft 4 kts 84°
2026-04-24 11:33 55.54175 13.36967 236 ft 4 kts 84°
2026-04-24 11:34 55.54180 13.37034 236 ft 7 kts 77°
2026-04-24 11:34 55.54197 13.37144 237 ft 11 kts 94°
2026-04-24 11:34 55.54127 13.37223 237 ft 15 kts 173°
2026-04-24 11:34 55.54014 13.37246 237 ft 18 kts 173°
2026-04-24 11:35 55.53882 13.37272 237 ft 21 kts 173°
2026-04-24 11:35 55.53728 13.37306 237 ft 24 kts 173°
2026-04-24 11:35 55.53557 13.37339 237 ft 26 kts 174°
2026-04-24 11:35 55.53369 13.37377 237 ft 26 kts 173°
2026-04-24 11:36 55.53211 13.37410 237 ft 23 kts 173°
2026-04-24 11:36 55.53067 13.37441 237 ft 13 kts 173°
2026-04-24 11:36 55.52987 13.37466 237 ft 9 kts 148°
2026-04-24 11:36 55.52973 13.37572 238 ft 10 kts 83°
2026-04-24 11:37 55.52981 13.37698 245 ft 7 kts 83°
2026-04-24 11:37 55.52999 13.37749 246 ft 3 kts
2026-04-24 11:37 55.53007 13.37748 246 ft 2 kts 353°
2026-04-24 11:37 55.53193 13.37711 245 ft 73 kts 353°
2026-04-24 11:38 55.53976 13.37553 271 ft 145 kts 353°
2026-04-24 11:38 55.54986 13.37406 1012 ft 147 kts 352°
2026-04-24 11:38 55.56005 13.37220 1996 ft 147 kts 350°
2026-04-24 11:38 55.57030 13.36982 2931 ft 154 kts 349°
2026-04-24 11:39 55.58198 13.36721 3631 ft 188 kts 355°
2026-04-24 11:39 55.59638 13.36751 4404 ft 227 kts
2026-04-24 11:39 55.61305 13.37310 5326 ft 250 kts 13°
2026-04-24 11:39 55.62964 13.38261 6806 ft 250 kts 16°
2026-04-24 11:40 55.64637 13.39200 8108 ft 257 kts 13°
2026-04-24 11:40 55.66394 13.40059 9347 ft 266 kts 12°
2026-04-24 11:40 55.68220 13.40941 10465 ft 282 kts 12°
2026-04-24 11:40 55.70195 13.41879 11320 ft 302 kts 12°
2026-04-24 11:41 55.72255 13.42869 12454 ft 311 kts 12°
2026-04-24 11:41 55.74364 13.43889 13689 ft 317 kts 12°
2026-04-24 11:41 55.76509 13.44928 14807 ft 323 kts 12°
2026-04-24 11:41 55.78694 13.45992 15916 ft 328 kts 12°
2026-04-24 11:42 55.80914 13.47073 17024 ft 334 kts 11°
2026-04-24 11:42 55.83175 13.48176 18125 ft 340 kts 11°
2026-04-24 11:42 55.85472 13.49299 19086 ft 346 kts 11°
2026-04-24 11:42 55.87816 13.50445 20032 ft 352 kts 11°
2026-04-24 11:43 55.90193 13.51612 20957 ft 357 kts 11°
2026-04-24 11:43 55.92603 13.52813 21882 ft 362 kts 10°
2026-04-24 11:43 55.95053 13.54005 22808 ft 367 kts
2026-04-24 11:43 55.97535 13.55217 23695 ft 373 kts
2026-04-24 11:44 56.00052 13.56447 24457 ft 377 kts
2026-04-24 11:44 56.02596 13.57706 25219 ft 381 kts
2026-04-24 11:44 56.05162 13.58973 25974 ft 385 kts
2026-04-24 11:44 56.07761 13.60253 26723 ft 389 kts
2026-04-24 11:45 56.10384 13.61553 27461 ft 393 kts
2026-04-24 11:45 56.12996 13.62852 28160 ft 396 kts
2026-04-24 11:45 56.15666 13.64176 28839 ft 400 kts
2026-04-24 11:45 56.18360 13.65510 29502 ft 404 kts
2026-04-24 11:46 56.21075 13.66862 30133 ft 407 kts
2026-04-24 11:46 56.23822 13.68226 30664 ft 411 kts
2026-04-24 11:46 56.26589 13.69611 31188 ft 415 kts
2026-04-24 11:46 56.29383 13.71017 31676 ft 419 kts
2026-04-24 11:47 56.32143 13.72835 32244 ft 430 kts 20°
2026-04-24 11:47 56.34689 13.75765 32937 ft 436 kts 28°
2026-04-24 11:47 56.37161 13.78937 33582 ft 436 kts 28°
2026-04-24 11:47 56.39634 13.82113 34185 ft 435 kts 28°
2026-04-24 11:48 56.42104 13.85260 34717 ft 434 kts 28°
2026-04-24 11:48 56.44571 13.88388 35249 ft 433 kts 28°
2026-04-24 11:48 56.47032 13.91534 35782 ft 433 kts 28°
2026-04-24 11:48 56.49477 13.94693 36289 ft 431 kts 28°
2026-04-24 11:49 56.51924 13.97828 36794 ft 430 kts 28°
2026-04-24 11:49 56.54363 14.00956 37293 ft 429 kts 28°
2026-04-24 11:49 56.56805 14.04052 37819 ft 427 kts 28°
2026-04-24 11:49 56.59237 14.07148 38328 ft 427 kts 29°
2026-04-24 11:50 56.61671 14.10281 38725 ft 430 kts 29°
2026-04-24 11:50 56.64118 14.13429 38968 ft 432 kts 30°
2026-04-24 11:50 56.69022 14.19736 39013 ft 431 kts 29°
2026-04-24 11:51 56.73922 14.26021 38997 ft 431 kts 29°
2026-04-24 11:51 56.78847 14.32253 38993 ft 431 kts 29°
2026-04-24 11:52 56.83742 14.38572 39015 ft 432 kts 30°
2026-04-24 11:52 56.88673 14.44975 39000 ft 436 kts 30°
2026-04-24 11:53 56.93620 14.51431 38997 ft 437 kts 30°
2026-04-24 11:53 56.98564 14.57909 38990 ft 437 kts 31°
2026-04-24 11:54 57.03518 14.64410 38986 ft 437 kts 31°
2026-04-24 11:54 57.08459 14.70925 38993 ft 437 kts 31°
2026-04-24 11:55 57.13369 14.77418 38988 ft 439 kts 31°
2026-04-24 11:55 57.17530 14.82929 38989 ft 440 kts 31°
2026-04-24 11:56 57.23296 14.90604 38978 ft 440 kts 31°
2026-04-24 11:56 57.28233 14.97293 38979 ft 440 kts 31°
2026-04-24 11:57 57.32373 15.02871 39000 ft 439 kts 32°
2026-04-24 11:57 57.37322 15.09543 39000 ft 441 kts 31°
2026-04-24 11:58 57.42282 15.16232 38983 ft 440 kts 31°
2026-04-24 11:58 57.47196 15.22839 38982 ft 438 kts 30°
2026-04-24 11:59 57.52147 15.29462 38984 ft 440 kts 31°
2026-04-24 11:59 57.57098 15.36193 38994 ft 441 kts 31°
2026-04-24 12:00 57.62042 15.42956 38986 ft 440 kts 31°
2026-04-24 12:00 57.66972 15.49720 38978 ft 440 kts 31°
2026-04-24 12:01 57.71923 15.56529 38981 ft 443 kts 31°
2026-04-24 12:01 57.76878 15.63382 38975 ft 443 kts 31°
2026-04-24 12:02 57.81836 15.70242 38975 ft 443 kts 31°
2026-04-24 12:02 57.86779 15.77122 38973 ft 442 kts 31°
2026-04-24 12:03 57.89227 15.80540 38437 ft 441 kts 31°
2026-04-24 12:03 57.91727 15.84024 37097 ft 455 kts 31°
2026-04-24 12:03 57.94295 15.87608 35978 ft 462 kts 31°
2026-04-24 12:03 57.96879 15.91234 35124 ft 462 kts 31°
2026-04-24 12:04 57.99439 15.94839 34479 ft 456 kts 31°
2026-04-24 12:04 58.01964 15.98401 33901 ft 450 kts 31°
2026-04-24 12:04 58.04423 16.01871 33281 ft 444 kts 31°
2026-04-24 12:04 58.06911 16.05387 32657 ft 438 kts 31°
2026-04-24 12:05 58.09335 16.08813 32075 ft 432 kts 31°
2026-04-24 12:05 58.11689 16.12146 31501 ft 426 kts 30°
2026-04-24 12:05 58.14046 16.15494 30943 ft 421 kts 30°
2026-04-24 12:05 58.16369 16.18800 30421 ft 415 kts 30°
2026-04-24 12:06 58.18664 16.22074 29897 ft 410 kts 30°
2026-04-24 12:06 58.20927 16.25301 29282 ft 405 kts 30°
2026-04-24 12:06 58.23165 16.28494 28706 ft 400 kts 30°
2026-04-24 12:06 58.25370 16.31650 28170 ft 394 kts 30°
2026-04-24 12:07 58.27536 16.34760 27716 ft 388 kts 31°
2026-04-24 12:07 58.29671 16.37877 27220 ft 385 kts 31°
2026-04-24 12:07 58.31789 16.40980 26696 ft 384 kts 31°
2026-04-24 12:07 58.33911 16.44067 26168 ft 384 kts 31°
2026-04-24 12:08 58.36034 16.47139 25663 ft 383 kts 31°
2026-04-24 12:08 58.38151 16.50197 25176 ft 381 kts 31°
2026-04-24 12:08 58.40263 16.53228 24655 ft 380 kts 31°
2026-04-24 12:08 58.42382 16.56241 24145 ft 380 kts 31°
2026-04-24 12:09 58.44494 16.59266 23628 ft 379 kts 32°
2026-04-24 12:09 58.46594 16.62308 23051 ft 378 kts 32°
2026-04-24 12:09 58.48682 16.65346 22496 ft 376 kts 32°
2026-04-24 12:09 58.50758 16.68366 21984 ft 374 kts 32°
2026-04-24 12:10 58.52819 16.71371 21468 ft 372 kts 32°
2026-04-24 12:10 58.54866 16.74360 20940 ft 369 kts 32°
2026-04-24 12:10 58.56896 16.77330 20432 ft 364 kts 32°
2026-04-24 12:11 58.60850 16.83139 19519 ft 352 kts 32°
2026-04-24 12:11 58.62782 16.85980 19057 ft 347 kts 32°
2026-04-24 12:11 58.64683 16.88776 18635 ft 342 kts 32°
2026-04-24 12:11 58.66559 16.91544 18219 ft 337 kts 32°
2026-04-24 12:12 58.68408 16.94276 17762 ft 332 kts 32°
2026-04-24 12:12 58.70224 16.96964 17333 ft 327 kts 32°
2026-04-24 12:12 58.72021 16.99625 16911 ft 326 kts 32°
2026-04-24 12:12 58.73817 17.02286 16531 ft 326 kts 32°
2026-04-24 12:13 58.75613 17.04951 16171 ft 325 kts 33°
2026-04-24 12:13 58.77403 17.07613 15823 ft 325 kts 33°
2026-04-24 12:13 58.79195 17.10280 15444 ft 325 kts 33°
2026-04-24 12:13 58.80983 17.12947 15079 ft 325 kts 33°
2026-04-24 12:14 58.82747 17.15585 14705 ft 325 kts 33°
2026-04-24 12:14 58.84534 17.18266 14338 ft 326 kts 33°
2026-04-24 12:14 58.86324 17.20945 13963 ft 325 kts 33°
2026-04-24 12:14 58.88114 17.23624 13571 ft 325 kts 34°
2026-04-24 12:15 58.89883 17.26280 13169 ft 319 kts 34°
2026-04-24 12:15 58.91615 17.28882 12797 ft 312 kts 34°
2026-04-24 12:15 58.93308 17.31432 12443 ft 305 kts 34°
2026-04-24 12:15 58.94964 17.33930 12082 ft 299 kts 34°
2026-04-24 12:16 58.96593 17.36385 11728 ft 296 kts 34°
2026-04-24 12:16 58.98220 17.38841 11385 ft 296 kts 34°
2026-04-24 12:16 58.99847 17.41299 11047 ft 297 kts 34°
2026-04-24 12:16 59.01471 17.43769 10704 ft 297 kts 34°
2026-04-24 12:17 59.03100 17.46238 10372 ft 297 kts 34°
2026-04-24 12:17 59.04729 17.48707 10033 ft 296 kts 34°
2026-04-24 12:17 59.06341 17.51157 9724 ft 291 kts 34°
2026-04-24 12:17 59.07905 17.53540 9449 ft 282 kts 34°
2026-04-24 12:18 59.09437 17.55874 9061 ft 278 kts 34°
2026-04-24 12:18 59.10950 17.58185 8663 ft 276 kts 35°
2026-04-24 12:18 59.12464 17.60495 8303 ft 277 kts 35°
2026-04-24 12:18 59.13970 17.62796 7963 ft 273 kts 35°
2026-04-24 12:19 59.15453 17.65065 7633 ft 270 kts 35°
2026-04-24 12:19 59.16934 17.67336 7301 ft 271 kts 36°
2026-04-24 12:19 59.18412 17.69615 6971 ft 270 kts 35°
2026-04-24 12:19 59.19872 17.71854 6637 ft 265 kts 35°
2026-04-24 12:20 59.21324 17.74081 6308 ft 266 kts 36°
2026-04-24 12:20 59.22777 17.76316 5974 ft 265 kts 36°
2026-04-24 12:20 59.24210 17.78525 5619 ft 261 kts 36°
2026-04-24 12:20 59.25627 17.80709 5283 ft 258 kts 36°
2026-04-24 12:21 59.27034 17.82884 4971 ft 258 kts 36°
2026-04-24 12:21 59.28441 17.85068 4654 ft 258 kts 36°
2026-04-24 12:21 59.29853 17.87251 4301 ft 259 kts 36°
2026-04-24 12:21 59.31258 17.89426 4019 ft 254 kts 36°
2026-04-24 12:22 59.32607 17.91518 3953 ft 240 kts 36°
2026-04-24 12:22 59.33874 17.93490 3960 ft 225 kts 36°
2026-04-24 12:22 59.35059 17.95336 3970 ft 210 kts 36°
2026-04-24 12:22 59.36211 17.97125 3991 ft 214 kts 36°
2026-04-24 12:23 59.37381 17.98941 3997 ft 215 kts 36°
2026-04-24 12:23 59.38557 18.00740 3998 ft 214 kts 32°
2026-04-24 12:23 59.39903 18.01837 3925 ft 208 kts
2026-04-24 12:23 59.41317 18.01774 3668 ft 207 kts 353°
2026-04-24 12:24 59.42747 18.01486 3353 ft 205 kts 353°
2026-04-24 12:24 59.44155 18.01247 3075 ft 201 kts 354°
2026-04-24 12:24 59.45547 18.01034 2804 ft 198 kts 354°
2026-04-24 12:24 59.46884 18.00848 2528 ft 185 kts 354°
2026-04-24 12:25 59.48097 18.00463 2475 ft 171 kts 348°
2026-04-24 12:25 59.49207 18.00046 2467 ft 155 kts 348°
2026-04-24 12:25 59.50265 17.99676 2480 ft 155 kts 349°
2026-04-24 12:25 59.51324 17.99299 2500 ft 154 kts 349°
2026-04-24 12:26 59.52356 17.98813 2459 ft 151 kts 340°
2026-04-24 12:26 59.53313 17.97940 2257 ft 153 kts 332°
2026-04-24 12:26 59.54186 17.96782 2018 ft 152 kts 323°
2026-04-24 12:26 59.54972 17.95460 1831 ft 142 kts 323°
2026-04-24 12:27 59.55733 17.94553 1609 ft 117 kts 334°
2026-04-24 12:27 59.56481 17.93966 1441 ft 117 kts 343°
2026-04-24 12:27 59.57273 17.93629 1284 ft 116 kts 350°
2026-04-24 12:27 59.58073 17.93533 1115 ft 116 kts 359°
2026-04-24 12:28 59.58878 17.93700 951 ft 117 kts
2026-04-24 12:28 59.59682 17.93976 784 ft 117 kts
2026-04-24 12:28 59.60481 17.94295 647 ft 116 kts
2026-04-24 12:28 59.61276 17.94585 463 ft 117 kts
2026-04-24 12:29 59.62081 17.94881 309 ft 119 kts
2026-04-24 12:29 59.62889 17.95173 164 ft 118 kts
2026-04-24 12:29 59.63684 17.95455 119 ft 106 kts 10°
2026-04-24 12:29 59.64211 17.95647 115 ft 48 kts 10°
2026-04-24 12:30 59.64465 17.95703 115 ft 28 kts 348°
2026-04-24 12:30 59.64660 17.95584 113 ft 30 kts 341°
2026-04-24 12:30 59.64801 17.95486 112 ft 17 kts 341°
2026-04-24 12:30 59.64935 17.95504 115 ft 22 kts
2026-04-24 12:31 59.65105 17.95485 120 ft 27 kts 344°
2026-04-24 12:31 59.65303 17.95379 132 ft 31 kts 345°
2026-04-24 12:31 59.65522 17.95263 134 ft 31 kts 345°
2026-04-24 12:31 59.65673 17.95182 135 ft 16 kts 345°
2026-04-24 12:32 59.65749 17.95062 132 ft 16 kts 277°
2026-04-24 12:32 59.65726 17.94829 128 ft 19 kts 256°
2026-04-24 12:32 59.65691 17.94556 129 ft 22 kts 256°
2026-04-24 12:32 59.65654 17.94262 129 ft 18 kts 256°
2026-04-24 12:33 59.65623 17.94017 125 ft 19 kts 256°
2026-04-24 12:33 59.65590 17.93752 119 ft 21 kts 256°
2026-04-24 12:33 59.65557 17.93474 116 ft 20 kts 258°
2026-04-24 12:33 59.65535 17.93298 117 ft 13 kts 253°
2026-04-24 12:34 59.65488 17.93198 117 ft 11 kts 185°
2026-04-24 12:34 59.65442 17.93204 116 ft 6 kts 178°
2026-04-24 12:34 59.65402 17.93170 117 ft 4 kts 223°
2026-04-24 12:34 59.65385 17.93140 115 ft 3 kts 221°
2026-04-24 12:35 59.65382 17.93135 116 ft 0 kts 221°